User: anonymous   Login
Location: Tucson
(32.2217°N, 110.9265°W)
Time: 00:16:28
(UTC-07:00)
Language:

N. Korean satellite - Orbit

View from above orbital plane
View from above orbital plane
View from above satellite
View from above satellite

Ground track
Ground track

The orbit data is extracted from the following two-line orbital elements,

1 39026U 12072A   20147.58056255  .00001234  00000-0  46264-4 0  9998
2 39026  97.2228 145.0246 0036298 324.3185  35.5629 15.28548132413960
Epoch (UTC): 26 May 2020 13:56:00
Eccentricity: 0.0036298
inclination: 97.2228°
perigee height: 455 km
apogee height: 505 km
right ascension of ascending node: 145.0246°
argument of perigee: 324.3185°
revolutions per day: 15.28548132
mean anomaly at epoch: 35.5629°
orbit number at epoch: 41396

The dashed part of the orbit path shows where the satellite is in the earth's shadow,  

DLR